TimeCET,TemperatureF,Dew PointF,Humidity,Sea Level PressureIn,VisibilityMPH,Wind Direction,Wind SpeedMPH,Gust SpeedMPH,PrecipitationIn,Events,Conditions,WindDirDegrees,DateUTC
12:00 AM,30.2,28.4,93,30.30,0.3,ESE,3.5,-,N/A,Fog,Light Freezing Fog,110,2012-11-14 23:00:00
1:00 AM,30.2,30.2,100,30.30,0.2,ESE,4.6,-,N/A,Fog,Light Freezing Fog,110,2012-11-15 00:00:00
2:00 AM,30.2,30.2,100,30.27,0.6,East,8.1,-,N/A,Fog,Light Freezing Fog,100,2012-11-15 01:00:00
3:00 AM,30.2,28.4,93,30.27,0.9,East,5.8,-,N/A,,Overcast,80,2012-11-15 02:00:00
4:00 AM,28.4,28.4,100,30.24,1.2,ESE,3.5,-,N/A,,Overcast,120,2012-11-15 03:00:00
5:00 AM,28.4,28.4,100,30.24,1.9,ESE,6.9,-,N/A,,Overcast,110,2012-11-15 04:00:00
6:00 AM,28.4,26.6,93,30.24,1.9,ENE,5.8,-,N/A,,Overcast,70,2012-11-15 05:00:00
7:00 AM,28.4,26.6,93,30.24,1.2,East,6.9,-,N/A,,Overcast,100,2012-11-15 06:00:00
7:30 AM,28.4,26.6,93,30.24,1.9,East,5.8,-,N/A,,Overcast,90,2012-11-15 06:30:00
8:00 AM,28.4,26.6,93,30.24,1.6,East,5.8,-,N/A,,Overcast,80,2012-11-15 07:00:00
8:30 AM,28.4,26.6,93,30.24,0.9,East,5.8,-,N/A,,Overcast,100,2012-11-15 07:30:00
9:00 AM,28.4,28.4,100,30.24,0.7,East,5.8,-,N/A,,Overcast,100,2012-11-15 08:00:00
9:30 AM,28.4,28.4,100,30.24,0.7,East,3.5,-,N/A,,Overcast,100,2012-11-15 08:30:00
10:00 AM,28.4,28.4,100,30.24,0.9,ENE,6.9,-,N/A,,Overcast,70,2012-11-15 09:00:00
10:30 AM,28.4,28.4,100,30.24,1.6,ENE,5.8,-,N/A,,Overcast,70,2012-11-15 09:30:00
11:00 AM,30.2,28.4,93,30.24,1.9,East,5.8,-,N/A,,Overcast,90,2012-11-15 10:00:00
11:30 AM,30.2,28.4,93,30.21,1.9,NE,3.5,-,N/A,,Overcast,40,2012-11-15 10:30:00
12:00 PM,30.2,28.4,93,30.21,3.1,ESE,3.5,-,N/A,,Overcast,110,2012-11-15 11:00:00
12:30 PM,30.2,28.4,93,30.21,3.1,ENE,3.5,-,N/A,,Overcast,60,2012-11-15 11:30:00
1:00 PM,30.2,28.4,93,30.18,3.1,ENE,4.6,-,N/A,,Overcast,60,2012-11-15 12:00:00
1:30 PM,30.2,28.4,93,30.18,3.1,NE,3.5,-,N/A,,Overcast,50,2012-11-15 12:30:00
2:00 PM,30.2,28.4,93,30.18,3.1,ENE,4.6,-,N/A,,Overcast,70,2012-11-15 13:00:00
2:30 PM,30.2,28.4,93,30.18,3.1,ENE,3.5,-,N/A,,Overcast,60,2012-11-15 13:30:00
3:00 PM,30.2,28.4,93,30.18,3.1,Variable,2.3,-,N/A,,Overcast,0,2012-11-15 14:00:00
3:30 PM,30.2,28.4,93,30.18,3.1,ESE,3.5,-,N/A,,Overcast,120,2012-11-15 14:30:00
4:00 PM,30.2,28.4,93,30.15,2.5,Variable,2.3,-,N/A,,Overcast,0,2012-11-15 15:00:00
4:30 PM,30.2,28.4,93,30.18,2.5,North,3.5,-,N/A,,Overcast,10,2012-11-15 15:30:00
5:00 PM,30.2,28.4,93,30.18,2.5,Variable,2.3,-,N/A,,Overcast,0,2012-11-15 16:00:00
5:30 PM,28.4,28.4,100,30.18,3.1,East,4.6,-,N/A,,Overcast,90,2012-11-15 16:30:00
6:00 PM,28.4,28.4,100,30.18,3.1,East,4.6,-,N/A,,Overcast,90,2012-11-15 17:00:00
6:30 PM,28.4,26.6,93,30.18,3.1,ESE,4.6,-,N/A,,Overcast,110,2012-11-15 17:30:00
7:00 PM,28.4,26.6,93,30.18,1.9,East,8.1,-,N/A,,Overcast,80,2012-11-15 18:00:00
7:30 PM,28.4,28.4,100,30.18,1.2,East,5.8,-,N/A,,Overcast,100,2012-11-15 18:30:00
8:00 PM,28.4,28.4,100,30.15,1.2,East,5.8,-,N/A,,Overcast,90,2012-11-15 19:00:00
9:00 PM,28.4,26.6,93,30.15,0.5,East,5.8,-,N/A,Fog,Light Freezing Fog,100,2012-11-15 20:00:00
9:26 PM,28.4,26.6,93,30.15,0.9,ENE,5.8,-,N/A,,Overcast,60,2012-11-15 20:26:00
10:00 PM,26.6,26.6,100,30.15,1.2,East,5.8,-,N/A,,Overcast,80,2012-11-15 21:00:00
11:00 PM,26.6,26.6,100,30.15,1.6,ESE,5.8,-,N/A,,Overcast,120,2012-11-15 22:00:00